This demonstration page uses our WeatherBlox Daily Observations layout. Learn more.

Left ArrowRight Arrow

36.19886, -115.1175

Hourly Observations for August 27, 2016

Temp ( °F °C ) Dew Point ( °F °C ) Humidity (%) Winds ( mph kmh ) Pressure ( in mb ) Visibility ( mi km ) Precip ( " mm )
12:53 am 00:53 Mostly Clear 79 26.1 54 12.2 42 42 SW 10 17 29.88 1012 10 16.0934 0 0
1:53 am 01:53 Clear 79 26.1 50 10 36 36 SSW 7 11 29.87 1012 10 16.0934 0 0
2:53 am 02:53 Mostly Cloudy 79 26.1 49 9.4 35 35 E 14 22 29.91 1013 10 16.0934 0 0
3:06 am 03:06 Cloudy 81 27 48 9 32 32 ESE 16 26 29.85 1011 10 16.0934 0 0
3:53 am 03:53 Mostly Cloudy 73 22.8 56 13.3 55 55 E 16 26 29.96 1015 10 16.0934 0 0
4:53 am 04:53 Mostly Clear 72 22.2 52 11.1 50 50 E 20 31 30.01 1016 10 16.0934 0 0
5:53 am 05:53 Mostly Cloudy 70 21.1 55 12.8 59 59 E 9 15 30.03 1017 10 16.0934 0 0
6:53 am 06:53 Mostly Cloudy 71 21.7 55 12.8 57 57 SW 3 6 30.05 1018 10 16.0934 0 0
7:53 am 07:53 Mostly Sunny 71 21.7 57 13.9 61 61 Calm 30.05 1018 10 16.0934 0 0
8:53 am 08:53 Sunny 73 22.8 54 12.2 51 51 W 5 7 30.01 1016 10 16.0934 0 0
9:53 am 09:53 Sunny 76 24.4 56 13.3 50 50 E 8 13 30.01 1016 10 16.0934 0 0
10:53 am 10:53 Sunny 78 25.6 55 12.8 45 45 E 18 30 30.02 1017 10 16.0934 0 0
11:53 am 11:53 Sunny 80 26.7 53 11.7 39 39 E 15 24 30.02 1017 10 16.0934 0 0
12:53 pm 12:53 Sunny 81 27.2 52 11.1 37 37 ESE 8 13 30.01 1016 10 16.0934 0 0
1:53 pm 13:53 Sunny 84 28.9 50 10 31 31 SE 9 15 29.98 1015 10 16.0934 0 0
2:53 pm 14:53 Sunny 86 30 49 9.4 28 28 E 7 11 29.95 1014 10 16.0934 0 0
3:53 pm 15:53 Sunny 87 30.6 49 9.4 27 27 ESE 10 17 29.94 1014 10 16.0934 0 0
4:53 pm 16:53 Sunny 87 30.6 48 8.9 26 26 ENE 3 6 29.92 1013 10 16.0934 0 0
5:53 pm 17:53 Sunny 86 30 47 8.3 26 26 ESE 8 13 29.93 1014 10 16.0934 0 0
6:53 pm 18:53 Sunny 85 29.4 48 8.9 28 28 E 9 15 29.93 1014 10 16.0934 0 0
7:53 pm 19:53 Clear 83 28.3 48 8.9 30 30 ESE 7 11 29.93 1014 10 16.0934 0 0
8:53 pm 20:53 Clear 82 27.8 48 8.9 31 31 ESE 7 11 29.95 1014 10 16.0934 0 0
9:53 pm 21:53 Clear 81 27.2 47 8.3 30 30 E 7 11 29.96 1015 10 16.0934 0 0
10:53 pm 22:53 Clear 79 26.1 49 9.4 35 35 E 5 7 29.98 1015 10 16.0934 0 0
11:53 pm 23:53 Clear 80 26.7 49 9.4 34 34 Calm 29.98 1015 10 16.0934 0 0

Powered by AerisWeather